Location: Madrid
(40.4000°N, 3.6830°W)
Time: 08:43:24
(UTC+02:00)

ISS - Pass Details

Date: 22 July 2017
Orbit: 400 x 408 km, 51.6° (Epoch: 21 July)

Event Time Altitude Azimuth Distance (km) Brightness Sun altitude
Rises 04:18:03 0° 312° (NW) 2,315 0.2 -23.5°
Reaches altitude 10° 04:20:47 10° 337° (NNW) 1,455 -0.6 -23.3°
Maximum altitude 04:22:47 15° 15° (NNE) 1,187 -0.6 -23.1°
Drops below altitude 10° 04:24:47 10° 53° (NE) 1,456 -0.1 -22.9°
Sets 04:27:31 0° 78° (ENE) 2,315 0.7 -22.6°
